Flag for Switzerland Weather past 2 weeks in Schwyz, Schwyz, Switzerland

Now
38 °F

Chilly.


Feels Like: 36 °F
Forecast: 28 / 38 °F
Wind: 3 mph from North

Location: Altdorf

Current Time: Dec 26, 2014 at 11:52:36 AM

Latest Report: Dec 26, 2014 at 11:00 AM


Visibility: N/A

Pressure: 30.48 "Hg

Humidity: 71%

Dew point: 29 °F

Location of SchwyzLocation

Historic Weather in Schwyz — Graph

°F

Schwyz temperature yesterday

Maximum temperature yesterday: 43 °F (at 3:00 PM)
Minimum temperature yesterday: 31 °F (at 12:00 AM)
Average temperature yesterday: 38 °F

Past Weeks' High & Low Weather Summary

 TemperatureHumidityPressure
High59 °F (Dec 13, 1:00 PM)100% (Dec 18, 10:00 PM)30.62 "Hg (Dec 18, 10:00 PM)
Low27 °F (Dec 24, 5:00 AM)31% (Dec 12, 10:00 PM)29.82 "Hg (Dec 12, 10:00 PM)
Average42 °F79%30.19 "Hg
* Reported Dec 11 10:00 AM — Dec 26 10:00 AM, Schwyz, Weather by CustomWeather, © 2014

Note: Actual official high and low records may vary slightly from our data, if they occured in-between our weather recording intervals... More about our weather records

Advertising

Schwyz weather history for previous 24 hours

 ConditionsComfort  
Time TempWeatherWind HumidityBarometerVisibility
10:00 AM
Dec 26
38 °FOvercast.2 mph76%30.48 "Hg9 mi
9:00 AM37 °FChilly.3 mph74%30.46 "HgN/A
8:00 AM36 °FChilly.1 mph75%30.46 "HgN/A
7:00 AM38 °FDrizzle. Overcast.7 mph76%30.45 "Hg7 mi
6:00 AM39 °FChilly.13 mph65%30.43 "HgN/A
5:00 AM38 °FChilly.15 mph68%30.44 "HgN/A
4:00 AM38 °FOvercast.13 mph68%30.44 "Hg7 mi
3:00 AM38 °FChilly.14 mph74%30.45 "HgN/A
2:00 AM37 °FChilly.3 mph80%30.45 "HgN/A
1:00 AM38 °FRain. Overcast.5 mph69%30.45 "Hg7 mi
12:00 AM38 °FChilly.18 mph82%30.45 "HgN/A
11:00 PM
Dec 25
41 °FQuite cool.12 mph55%30.43 "HgN/A
9:00 PM40 °FChilly.14 mph68%30.44 "HgN/A
8:00 PM39 °FChilly.17 mph74%30.44 "HgN/A
7:00 PM40 °FDrizzle. Overcast.17 mph73%30.42 "Hg7 mi
6:00 PM39 °FChilly.18 mph81%30.40 "HgN/A
5:00 PM40 °FQuite cool.15 mph82%30.37 "HgN/A
4:00 PM40 °FDrizzle. Overcast.18 mph86%30.37 "Hg7 mi
3:00 PM43 °FQuite cool.16 mph79%30.33 "HgN/A
2:00 PM40 °FQuite cool.5 mph93%30.34 "HgN/A
1:00 PM40 °FOvercast.1 mph92%30.34 "Hg11 mi
12:00 PM39 °FChilly.1 mph89%30.37 "HgN/A
11:00 AM39 °FChilly.2 mph87%30.36 "HgN/A
Weather by CustomWeather, © 2014

See weather overviewHow to use our weather pages